Погода в Кенилворте

Великобритания     52°20′20″N   1°34′30″W
темп.,
°C
ветер,
м/с
пор.,
м/с
влажн.,
%
обл.,
%
осадки,
мм/ч
давл.,
гПа
погр.,
м
17 июня, чт
чт1701:00+16з2291100 0.0 100924
04:00+14сз3597100 1.4 1008158
07:00+14сз4594100 1.4 1009232
10:00+14ссз4788100 0.0 1010338
13:00+16с4582100 0.0 1012403
16:00+18с557695 0.0 1012759
19:00+15ссз4885100 0.3 1013309
22:00+14ссз4894100 0.5 1015286
18 июня, пт
пт1801:00+11ссз5993100 2.6 1015313
04:00+10ссз4995100 3.6 1016358
07:00+10с4995100 3.8 1016372
10:00+12ссв51096100 0.8 1015559
13:00+12ссв51096100 1.3 1015628
16:00+12с51097100 3.1 1015612
19:00+12с4995100 3.4 1015553
22:00+11ссз2596100 0.0 1016198
19 июня, сб
сб1901:00+11с2295100 0.0 101653
04:00+10всв119664 0.0 101711
07:00+11в349358 0.0 1017188
10:00+14вюв458237 0.0 1017683
13:00+16вюв5574100 0.1 10151048
16:00+16вюв6778100 0.3 1013941
19:00+15вюв5888100 0.4 1012582
22:00+13в51091100 0.3 1011408
20 июня, вс
вс2001:00+11всв61297100 2.1 1009447
04:00+11св61397100 2.6 1005477
07:00+10ссв71597100 12.2 1003597
10:00+10с81596100 16.8 1002838
13:00+10ссз61296100 20.4 1003792
16:00+10сз61195100 3.3 1005586
19:00+10сз4893100 3.3 1007490
22:00+9ссз3891100 0.0 1009366
21 июня, пн
пн2101:00+6сз379625 0.0 1009170
04:00+8ссз3892100 0.0 1010332
07:00+9ссз3789100 0.0 1011369
10:00+10ссз4680100 0.0 1012645
13:00+10с4780100 0.0 1013707
16:00+11с4779100 0.0 1014852
19:00+11ссв3777100 0.0 1015667
22:00+8ююз118790 0.0 101611